Weather in Yablonka

Russia / Tver Oblast     57°39′28″N   33°25′43″E
temp.,
°C
wind,
m/s
gust,
m/s
humid.,
%
clouds,
%
prec.,
mm/h
press.,
hPa
HPBL,
m
4 march, thu
thu400:00+1w71397100 1.1 1003949
03:00+1w71496100 4.1 10011054
06:00−2wnw51188100 1.3 1001742
09:00−4nw498993 1.4 1002638
12:00−2nw467531 0.0 1001838
15:00−1nw467044 0.1 10021087
18:00−4nw258433 0.2 1002164
21:00−5nw249548 0.3 1003213
5 march, fri
fri500:00−5nnw4887100 0.4 1004648
03:00−7nw389093 0.4 1006445
06:00−7wnw389378 0.1 1007529
09:00−7wnw368689 0.1 1008682
12:00−5nw3574100 0.1 1009899
15:00−4nw4571100 0.3 10111041
18:00−6nw378192 0.3 1012478
21:00−8n269191 0.3 1015438
6 march, sat
sat600:00−10n129216 0.0 101648
03:00−11wnw129010 0.0 101724
06:00−10w258472 0.0 1018235
09:00−9w378883 0.0 1018486
12:00−6wnw4674100 0.1 10171037
15:00−5w4773100 0.1 10151073
18:00−5sw41171100 0.0 10111112
21:00−6sw71690100 0.4 10061337
7 march, sun
sun700:00−4wsw81792100 1.2 10001318
03:00−3wsw81691100 3.0 9951245
06:00−3sw71693100 2.1 9921270
09:00−7wnw4970100 4.5 992976
12:00−5wsw48640 0.0 9921501
15:00−5w7125749 1.4 9922166
18:00−8wnw51173100 0.4 9931326
21:00−9nw369389 1.3 994579
8 march, mon
mon800:00−11nnw3894100 0.1 997371
03:00−13nw4109489 0.1 1001452
06:00−12nw41092100 0.1 1003725
09:00−12nnw5989100 0.2 1006825
12:00−11nnw5882100 0.1 1010775
15:00−11nnw5883100 0.2 1012767
18:00−12nnw51087100 0.1 1015703
21:00−15nnw4993100 0.1 1018508